Location: Noverd
(38.0910°N, 121.6877°W)
Time: 06:21:58
(UTC+00:00)

Cosmos 2100 Rocket - Pass Details

Date: 17 May 2026
Orbit: 956 x 999 km, 82.9° (Epoch: 8 June)

Event Time Altitude Azimuth Distance (km) Brightness Sun altitude
Rises 05:06:00 0° 233° (SW) 3,660 7.1 -19.1°
Reaches altitude 10° 05:09:34 10° 254° (WSW) 2,726 6.7 -19.6°
Maximum altitude 05:13:20 16° 291° (WNW) 2,305 6.8 -20.1°
Drops below altitude 10° 05:17:09 10° 329° (NNW) 2,753 7.5 -20.6°
Sets 05:20:48 0° 350° (N) 3,714 8.0 -21.1°
